Location: Blanchs Jetty
(32.7152°S, 151.9346°E)
Time: 18:00:14
(UTC+00:00)

Daily predictions for brighter satellites

Satellite Brightness Start Highest point End
(mag) Time Altitude Azimuth Time Altitude Azimuth Time Altitude Azimuth
ATLAS 3B R/B 3.6 17:45:45 45° ENE 17:45:45 45° ENE 17:50:37 10° NE
Lacrosse 4 Rocket 4.2 18:19:00 13° SE 18:20:08 14° SE 18:22:34 10° E
Okean O Rocket 3.8 18:22:55 10° ENE 18:26:29 24° ESE 18:28:52 16° SSE
OAO 3 Rocket 4.4 18:40:26 34° N 18:41:07 35° NNE 18:45:30 10° E
Lacrosse 5 rocket 3.7 18:39:38 12° NNE 18:42:02 20° ENE 18:44:51 10° ESE
Cosmos 2142 Rocket 4.5 18:38:47 23° S 18:42:50 80° E 18:48:59 10° N
Cosmos 968 Rocket 4.1 18:44:23 45° NNW 18:44:23 45° NNW 18:48:05 10° N
CZ-4B DEB 4.1 18:40:35 10° NNE 18:46:04 86° ESE 18:47:46 47° S
Chandra Rocket (1) 4.1 18:47:38 36° WNW 18:50:43 45° NNW 18:55:30 10° NE
CZ-4C R/B 3.0 18:48:55 46° WNW 18:50:59 57° WSW 18:58:15 10° SSE
Cosmos 1066 Rocket 4.1 18:46:26 10° NNW 18:52:12 68° W 18:57:54 10° S
PAYLOAD B 4.1 18:49:21 10° NNE 18:54:51 87° ESE 18:57:58 27° SSW
Cosmos 1634 Rocket 4.0 18:56:38 52° WSW 18:57:17 54° W 19:03:22 10° NNW
H-2A R/B 3.1 18:54:30 10° NNE 18:58:21 65° ESE 18:59:03 52° SSE
CZ-3B R/B 4.4 18:27:25 10° SW 18:59:22 76° SE 19:04:58 10° NE
Cosmos 2084 Rocket 3.6 18:59:25 60° SSE 18:59:53 66° ESE 19:04:02 10° NE
MOS 1-B 4.3 18:59:10 10° N 19:04:55 63° WNW 19:07:35 33° SSW
Cosmos 1354 Rocket 3.9 19:04:25 48° SW 19:05:46 69° WNW 19:10:59 10° N
Cosmos 1242 Rocket 2.4 19:06:09 10° N 19:13:42 - S 19:09:36 85° N
Nadezhda 4 Rocket 4.1 19:06:26 10° N 19:12:44 79° E 19:19:04 10° S
Meteor 1-15 Rocket 4.3 19:11:02 19° SSW 19:15:21 64° W 19:21:10 10° N
Cosmos 1975 Rocket 3.4 19:11:00 10° N 19:15:28 67° E 19:20:00 10° SSE
Cosmos 220 Rocket 3.8 19:11:51 10° NNW 19:16:01 63° WSW 19:20:16 10° S
Cosmos 1271 Rocket 3.0 19:17:30 10° N 19:21:14 65° E 19:25:01 10° SSE
ADEOS Rocket 3.4 19:19:07 10° SSE 19:24:36 57° E 19:30:01 10° N
NOAA 12 4.5 19:22:47 10° NNE 19:27:59 65° ESE 19:33:15 10° S
Cosmos 1733 3.3 19:24:08 10° S 19:28:02 75° E 19:31:51 10° N
Helios 1A Rocket 4.3 19:24:24 10° NE 19:28:10 39° ESE 19:32:00 10° S
FALCON 9 DEB 3.5 19:30:40 44° W 19:31:16 50° NW 19:34:41 10° NNE
Cosmos 1656 3.6 19:26:25 10° NNW 19:31:57 78° WSW 19:37:39 10° SSE
Cosmos 2227 Rocket 3.7 19:27:03 10° S 19:32:12 34° ESE 19:37:18 10° NE
ATLAS 3B R/B 3.8 19:33:04 21° W 19:33:55 22° WNW 19:38:56 10° NNW
Cosmos 2279 Rocket 4.3 19:28:31 10° SSW 19:34:28 44° W 19:40:20 10° NNW
Atlas Centaur 2 4.1 19:28:17 10° NW 19:35:04 33° NNE 19:40:48 10° E
SL-4 R/B 3.8 19:36:08 14° NW 19:36:08 14° NW 19:37:26 10° NNW
Cosmos 1455 Rocket 4.0 19:33:26 10° S 19:37:47 50° E 19:42:01 10° NNE
Cosmos 2219 3.8 19:34:48 10° SSW 19:40:32 59° ESE 19:46:12 10° NNE
SMAP 3.0 19:36:58 10° N 19:41:37 68° W 19:46:19 10° SSW
Timation 2 Rocket 4.2 19:36:49 10° SSW 19:43:42 70° WNW 19:50:31 10° N
Cosmos 1707 3.9 19:40:02 10° NNE 19:43:47 46° E 19:47:36 10° SSE
Envisat 3.0 19:39:36 10° N 19:44:38 63° WNW 19:49:45 10° SSW
USA 234 3.3 19:39:34 10° NE 19:46:07 77° NW 19:52:06 13° SW
Cosmos 1980 Rocket 3.9 19:43:25 10° NNE 19:48:30 36° ENE 19:53:37 10° SE
Cosmos 1689 Rocket 3.0 19:49:29 24° SW 19:50:15 27° WSW 19:52:53 10° NW
PSLV R/B 3.9 19:48:02 10° S 19:52:08 64° WSW 19:56:14 10° NNW
Cosmos 1805 4.1 19:51:19 17° SW 19:53:36 29° W 19:57:02 10° NNW
ARGOS Delta rocket 4.2 19:50:03 10° NNE 19:55:24 80° ESE 20:00:34 10° S
Lacrosse 4 Rocket 1.8 19:55:21 14° SW 19:59:02 48° WNW 20:03:20 10° N
COSMO-SKYMED 1 2.5 19:57:14 10° S 20:01:39 83° WSW 20:06:01 10° NNW
CZ-4B R/B 4.0 19:57:34 10° NNW 20:02:16 30° W 20:07:06 10° SW
Okean O Rocket 2.7 19:59:04 10° NNW 20:02:40 24° W 20:06:19 10° SW
Cosmos 1766 4.4 20:03:04 10° SW 20:06:17 25° W 20:09:32 10° NW
Cosmos 921 Rocket 3.8 20:08:30 10° NW 20:12:08 27° WSW 20:15:47 10° S
Cosmos 2360 4.3 20:07:59 10° NNW 20:13:43 89° ENE 20:19:29 10° SSE
YAOGAN 1 4.0 20:10:32 10° NE 20:14:35 40° ESE 20:18:42 10° S
Cosmos 1536 Rocket 3.6 20:12:20 10° N 20:16:43 88° W 20:21:08 10° S
Cosmos 1953 3.8 20:13:58 10° S 20:17:49 39° E 20:21:36 10° NNE
Okean-O 2.8 20:14:43 10° NNE 20:19:10 82° ESE 20:23:40 10° S
Cosmos 1544 Rocket 3.5 20:15:07 10° S 20:19:31 73° W 20:23:50 10° N
Cosmos 1697 Rocket 2.8 20:14:55 10° NW 20:20:24 56° WSW 20:25:59 10° S
Lacrosse 5 rocket 2.0 20:17:38 10° WNW 20:20:56 29° SW 20:24:26 10° SSE
YAOGAN 6 4.1 20:20:28 10° NW 20:23:11 20° W 20:25:56 10° SW
OAO 3 Rocket 3.2 20:19:37 10° WNW 20:24:27 86° SSW 20:29:13 10° ESE
Cosmos 468 Rocket 4.0 20:25:16 10° NNW 20:30:32 65° WSW 20:35:49 10° S
